Location: Newark
(43.6583°N, 1.6617°E)
Time: 03:04:56
(UTC+00:00)

Starlink (trailer) - Visible Passes

Search period start: 20 July 2019 00:00
Search period end: 30 July 2019 00:00
Orbit: 548 x 551 km, 53.0° (Epoch: 19 July)

Date Brightness Start Highest point End Pass type
(mag) Time Alt. Az. Time Alt. Az. Time Alt. Az.
20 Jul 5.0 00:50:05 31° E 00:50:05 31° E 00:52:35 10° ENE visible
20 Jul 4.7 02:25:43 19° W 02:28:16 41° NNW 02:32:13 10° NE visible
21 Jul 4.7 00:44:34 37° E 00:44:34 37° E 00:47:16 10° ENE visible
21 Jul 5.0 02:20:11 16° W 02:22:58 34° NNW 02:26:47 10° NE visible
22 Jul 4.5 00:38:59 44° ENE 00:38:59 44° ENE 00:41:54 10° ENE visible
22 Jul 5.3 02:14:37 13° WNW 02:17:40 30° NNW 02:21:22 10° NE visible
22 Jul 5.9 03:54:54 10° NW 03:58:12 22° N 04:01:30 10° NE visible
23 Jul 4.3 00:33:21 50° NE 00:33:21 50° NE 00:36:30 10° NE visible
23 Jul 5.5 02:08:59 11° WNW 02:12:23 27° NNW 02:15:58 10° NE visible
23 Jul 5.9 03:49:36 10° NW 03:52:58 23° N 03:56:19 10° ENE visible
24 Jul 4.3 00:27:41 52° NNE 00:27:41 52° NNE 00:31:05 10° NE visible
24 Jul 5.7 02:03:40 10° WNW 02:07:08 25° N 02:10:35 10° NE visible
24 Jul 5.9 03:44:16 10° NW 03:47:43 24° N 03:51:09 10° ENE visible
25 Jul 4.4 00:21:55 49° N 00:21:55 49° N 00:25:39 10° NE visible
25 Jul 5.9 01:58:31 10° WNW 02:01:52 23° N 02:05:14 10° NE visible
25 Jul 5.8 03:38:54 10° NW 03:42:27 26° NNE 03:45:59 10° ENE visible
25 Jul 6.2 22:40:28 11° ENE 22:40:28 11° ENE 22:40:34 10° ENE visible
26 Jul 4.7 00:16:04 42° NNW 00:16:14 42° NNW 00:20:13 10° NE visible
26 Jul 6.0 01:53:19 10° WNW 01:56:38 22° N 01:59:57 10° NE visible
26 Jul 5.7 03:33:30 10° NW 03:37:10 29° NNE 03:40:51 10° E visible
26 Jul 5.9 22:34:27 15° ENE 22:34:27 15° ENE 22:35:14 10° ENE visible
27 Jul 5.1 00:10:03 32° NW 00:10:55 35° NNW 00:14:46 10° NE visible
27 Jul 6.0 01:48:06 10° NW 01:51:23 22° N 01:54:40 10° NE visible
27 Jul 5.4 03:28:04 10° NW 03:31:53 33° NNE 03:35:40 10° E visible
27 Jul 5.3 22:28:08 24° ENE 22:28:08 24° ENE 22:29:52 10° ENE visible
28 Jul 5.4 00:03:42 21° WNW 00:05:37 31° NNW 00:09:20 10° NE visible
28 Jul 6.1 01:42:50 10° NW 01:46:09 22° N 01:49:26 10° NE visible
28 Jul 5.1 03:22:38 10° NW 03:26:33 39° NNE 03:30:28 10° E visible
28 Jul 3.8 22:20:54 64° NE 22:20:54 64° NE 22:24:28 10° NE visible
28 Jul 5.6 23:56:44 10° WNW 00:00:19 27° NNW 00:03:56 10° NE visible
29 Jul 6.0 01:37:32 10° NW 01:40:54 23° N 01:44:14 10° ENE visible
29 Jul 4.7 03:17:12 10° NW 03:21:13 47° NNE 03:25:13 10° ESE visible
29 Jul 4.8 20:32:25 10° S 20:35:38 22° SE 20:38:52 10° E visible
29 Jul 3.9 22:10:46 10° WSW 22:14:53 67° NNW 22:19:02 10° NE visible
29 Jul 5.8 23:51:35 10° WNW 23:55:03 25° NNW 23:58:32 10° NE visible
